GW2438 Weather Reports


time (UTC)temp
C
wind
direction
speed
KPH
gust
KPH
rain 1hr
cm
rain 24hr
cm
rain mn
cm
humidity
%
barometer
mb
20260506004533 18 217 3.2 6.4 0.00 0.00 0.00 66 1015.1
20260506003531 18 255 6.4 12.9 0.00 0.00 0.00 66 1015.3
20260506002529 18 272 4.8 9.7 0.00 0.00 0.00 66 1015.3
20260506001547 18 239 3.2 4.8 0.00 0.00 0.00 65 1015.3
20260506000525 18 229 4.8 12.9 0.00 0.00 0.00 64 1015.3
20260505235524 19 221 1.6 4.8 0.00 0.00 0.00 64 1015.4
20260505234542 19 237 4.8 9.7 0.00 0.00 0.00 64 1015.6
20260505233520 19 228 3.2 11.3 0.00 0.00 0.00 63 1015.7
20260505232518 20 248 6.4 9.7 0.00 0.00 0.00 63 1015.8
20260505231516 20 232 4.8 9.7 0.00 0.00 0.00 61 1015.8
20260505230615 20 222 4.8 9.7 0.00 0.00 0.00 62 1015.9
20260505225633 20 237 4.8 6.4 0.00 0.00 0.00 62 1015.9
20260505224611 20 229 1.6 6.4 0.00 0.00 0.00 62 1016.1
20260505223609 20 181 3.2 6.4 0.00 0.00 0.00 62 1016.2
20260505222608 20 254 3.2 11.3 0.00 0.00 0.00 62 1016.2
20260505221606 20 240 4.8 12.9 0.00 0.00 0.00 63 1016.4
20260505220625 19 234 1.6 4.8 0.00 0.00 0.00 64 1016.4
20260505215603 19 254 1.6 4.8 0.00 0.00 0.00 64 1016.3
20260505214601 19 238 1.6 11.3 0.00 0.00 0.00 65 1016.4
20260505213600 19 266 3.2 6.4 0.00 0.00 0.00 63 1016.6
20260505212558 19 273 0.0 1.6 0.00 0.00 0.00 65 1016.6
20260505211556 19 227 1.6 3.2 0.00 0.00 0.00 64 1016.6
20260505210554 18 234 1.6 6.4 0.00 0.00 0.00 66 1016.6
20260505205553 18 254 1.6 3.2 0.00 0.00 0.00 65 1016.6
20260505204631 18 263 1.6 4.8 0.00 0.00 0.00 63 1016.6
20260505203549 18 200 3.2 6.4 0.00 0.00 0.00 65 1016.7
20260505202548 18 220 3.2 6.4 0.00 0.00 0.00 67 1016.6
20260505201546 18 209 1.6 3.2 0.00 0.00 0.00 67 1016.7
20260505200624 18 221 4.8 9.7 0.00 0.00 0.00 68 1016.7
20260505195542 17 226 1.6 6.4 0.00 0.00 0.00 69 1016.7
20260505194540 17 219 1.6 4.8 0.00 0.00 0.00 70 1016.7
20260505193538 17 254 4.8 11.3 0.00 0.00 0.00 70 1016.7
20260505192536 17 226 1.6 4.8 0.00 0.00 0.00 71 1016.7
20260505191535 17 228 3.2 6.4 0.00 0.00 0.00 70 1016.8
20260505190533 16 209 4.8 9.7 0.00 0.00 0.00 72 1016.7
20260505185611 16 229 4.8 11.3 0.00 0.00 0.00 72 1016.7
20260505184530 16 224 1.6 6.4 0.00 0.00 0.00 72 1016.6
20260505183548 16 204 1.6 4.8 0.00 0.00 0.00 74 1016.7
20260505182526 16 200 4.8 9.7 0.00 0.00 0.00 74 1016.6
20260505181524 15 242 1.6 6.4 0.00 0.00 0.00 75 1016.6
20260505180523 15 250 0.0 4.8 0.00 0.00 0.00 75 1016.6
20260505175542 15 228 1.6 6.4 0.00 0.00 0.00 76 1016.6
20260505174521 15 249 1.6 4.8 0.00 0.00 0.00 76 1016.6
20260505173518 15 237 1.6 3.2 0.00 0.00 0.00 77 1016.6
20260505172516 15 168 0.0 3.2 0.00 0.00 0.00 78 1016.4
20260505171615 14 246 1.6 6.4 0.00 0.00 0.00 78 1016.4
20260505170612 14 241 1.6 4.8 0.00 0.00 0.00 78 1016.4
20260505165611 14 244 1.6 6.4 0.00 0.00 0.00 79 1016.3
20260505164609 13 213 1.6 6.4 0.00 0.00 0.00 79 1016.3
20260505163607 13 227 1.6 4.8 0.00 0.00 0.00 79 1016.2
20260505162606 13 232 3.2 4.8 0.00 0.00 0.00 80 1016.2
20260505161604 13 235 1.6 4.8 0.00 0.00 0.00 80 1016.1
20260505160603 13 222 1.6 6.4 0.00 0.00 0.00 80 1016.0
20260505152556 13 206 3.2 6.4 0.00 0.00 0.00 81 1016.0
20260505151554 13 188 3.2 4.8 0.00 0.00 0.00 81 1015.9
20260505150552 13 229 3.2 11.3 0.00 0.00 0.00 81 1015.8
20260505140543 12 218 3.2 4.8 0.00 0.00 0.00 82 1015.3
20260505124610 12 228 3.2 6.4 0.00 0.00 0.00 83 1014.6
20260505123527 12 213 3.2 9.7 0.00 0.00 0.00 83 1014.5
20260505122525 12 234 1.6 4.8 0.00 0.00 0.00 83 1014.5
20260505121523 12 224 1.6 3.2 0.00 0.00 0.00 83 1014.5
20260505120521 12 184 1.6 3.2 0.00 0.00 0.00 83 1014.4
20260505115519 12 237 0.0 3.2 0.00 0.00 0.00 83 1014.3
20260505114519 12 204 0.0 1.6 0.00 0.00 0.00 83 1014.4
20260505113516 12 238 1.6 4.8 0.00 0.00 0.00 83 1014.4
20260505112615 12 210 3.2 6.4 0.00 0.00 0.00 83 1014.3
20260505111613 12 211 3.2 4.8 0.00 0.00 0.00 83 1014.3
20260505110611 12 264 0.0 4.8 0.00 0.00 0.00 83 1014.1
20260505101643 12 213 1.6 3.2 0.00 0.00 0.00 83 1014.0
20260505100601 12 215 1.6 3.2 0.00 0.00 0.00 84 1013.8
20260505095600 12 237 1.6 3.2 0.00 0.00 0.00 84 1013.8
20260505094558 12 214 3.2 9.7 0.00 0.00 0.00 84 1013.7
20260505093555 12 228 3.2 6.4 0.00 0.00 0.00 84 1013.7
20260505092554 12 197 1.6 6.4 0.00 0.00 0.00 84 1013.7
20260505091553 12 185 3.2 4.8 0.00 0.00 0.00 84 1013.6
20260505090552 12 173 0.0 3.2 0.00 0.00 0.00 85 1013.6
20260505085549 12 221 1.6 1.6 0.00 0.00 0.00 85 1013.4
20260505084548 12 230 1.6 4.8 0.00 0.00 0.00 86 1013.5
20260505083546 11 248 1.6 3.2 0.00 0.00 0.00 86 1013.4
20260505082544 11 214 1.6 3.2 0.00 0.00 0.00 86 1013.4
20260505081545 11 220 1.6 4.8 0.00 0.00 0.00 85 1013.5
20260505080540 11 247 3.2 9.7 0.00 0.00 0.00 85 1013.5
20260505075539 11 233 4.8 9.7 0.00 0.00 0.00 85 1013.3
20260505074537 11 210 1.6 4.8 0.00 0.00 0.00 85 1013.2
20260505073556 11 233 1.6 4.8 0.00 0.00 0.00 85 1013.0
20260505072534 11 240 4.8 11.3 0.00 0.00 0.00 84 1012.8
20260505071532 11 233 1.6 4.8 0.00 0.00 0.00 84 1012.8
20260505070530 11 229 3.2 9.7 0.00 0.00 0.00 83 1012.8
20260505065549 12 236 1.6 4.8 0.00 0.00 0.00 83 1012.8
20260505064527 12 237 1.6 6.4 0.00 0.00 0.00 83 1012.7
20260505063525 12 238 1.6 4.8 0.00 0.00 0.00 82 1012.5
20260505062523 12 246 1.6 3.2 0.00 0.00 0.00 82 1012.5
20260505061542 12 228 3.2 9.7 0.00 0.00 0.00 82 1012.3
20260505060520 12 252 3.2 9.7 0.00 0.00 0.00 81 1012.2
20260505055518 12 223 3.2 9.7 0.00 0.00 0.00 82 1012.1
20260505054517 12 259 4.8 12.9 0.00 0.00 0.00 81 1012.0
20260505053614 12 242 4.8 14.5 0.00 0.00 0.00 81 1012.0
20260505052613 13 255 6.4 16.1 0.00 0.00 0.00 80 1012.0
20260505051611 13 228 4.8 11.3 0.00 0.00 0.00 79 1012.0
20260505050630 13 243 3.2 11.3 0.00 0.00 0.00 78 1011.7
20260505041601 15 234 4.8 11.3 0.00 0.00 0.00 71 1011.3
20260505040619 15 235 4.8 6.4 0.00 0.00 0.00 70 1011.0
20260505035557 16 253 4.8 9.7 0.00 0.00 0.00 69 1011.1
20260505034556 16 255 4.8 12.9 0.00 0.00 0.00 67 1010.9
20260505033554 17 231 3.2 12.9 0.00 0.00 0.00 66 1010.7
20260505032553 17 244 6.4 11.3 0.00 0.00 0.00 64 1010.6
20260505031551 18 244 4.8 9.7 0.00 0.00 0.00 63 1010.5
20260505030549 18 254 4.8 11.3 0.00 0.00 0.00 61 1010.3
20260505025548 19 236 4.8 12.9 0.00 0.00 0.00 59 1010.1
20260505024546 20 275 4.8 9.7 0.00 0.00 0.00 58 1010.0
20260505023604 21 255 4.8 14.5 0.00 0.00 0.00 57 1009.9
20260505022542 21 241 6.4 11.3 0.00 0.00 0.00 56 1010.0
20260505021541 21 251 3.2 6.4 0.00 0.00 0.00 55 1009.9
20260505020559 21 250 6.4 12.9 0.00 0.00 0.00 55 1009.9
20260505015537 22 237 6.4 16.1 0.00 0.00 0.00 54 1009.8
20260505014535 22 247 8.0 14.5 0.00 0.00 0.00 53 1009.8
20260505013534 23 254 6.4 17.7 0.00 0.00 0.00 52 1009.9
20260505012552 23 262 4.8 11.3 0.00 0.00 0.00 52 1009.7
20260505011551 23 252 6.4 9.7 0.00 0.00 0.00 52 1009.8
20260505010528 23 274 4.8 9.7 0.00 0.00 0.00 51 1009.8
20260505005547 24 260 1.6 4.8 0.00 0.00 0.00 51 1009.8